Change the Weather History Date:

Sunday, May 5, 2013

  Actual Average Record
Temperature  
Mean Temperature 60 °F -  
Max Temperature 68 °F 59 °F 68 °F (2001)
Min Temperature 53 °F 50 °F 41 °F (1999)
Degree Days  
Heating Degree Days 4    
Growing Degree Days 10 (Base 50)    
Moisture  
Dew Point 54 °F    
Average Humidity 82    
Maximum Humidity 100    
Minimum Humidity 52    
Precipitation  
Precipitation 0.00 in - - ()
Sea Level Pressure  
Sea Level Pressure 29.29 in    
Wind  
Wind Speed 6 mph ()    
Max Wind Speed 15 mph    
Max Gust Speed -    
Visibility 6.2 miles    
Events Rain    
Averages and records for this station are not official NWS values.
T = Trace of Precipitation, MM = Missing Value Source: Averaged Metar Reports

Daily Weather History Graph

Daily Weather History Graph

Search for Another Location

Airport or City:

Trip Planner

Search our weather history database for the weather conditions in past years. The results will help you decide how hot, cold, wet, or windy it might be!

Date:

Astronomy

May. 05, 2013 Rise Set
Actual Time 7:11 AM NZST 5:22 PM NZST
Civil Twilight 6:42 AM NZST 5:51 PM NZST
Nautical Twilight 6:09 AM NZST 6:24 PM NZST
Astronomical Twilight 5:37 AM NZST 6:56 PM NZST
Moon 2:02 AM NZST (5/5) 2:37 PM NZST (5/5)
Length of Visible Light 11h 08m
Length of Day
10h 10m
Waning Crescent, 24% of the Moon is Illuminated
May 5
Waning Crescent
May 10
New
May 18
First Quarter
May 25
Full
Jun 1
Last Quarter

Hourly Weather History & Observations

Time (NZST) Temp. Dew Point Humidity Pressure Visibility Wind Dir Wind Speed Gust Speed Precip Events Conditions
12:00 AM 55.4 °F 53.6 °F 94% 29.53 in 6.2 mi NNE 3.5 mph - N/A   Partly Cloudy
1:00 AM 55.4 °F 53.6 °F 94% 29.50 in - NE 5.8 mph - N/A   Clear
2:00 AM 53.6 °F 51.8 °F 94% 29.47 in - North 3.5 mph - N/A   Clear
3:00 AM 55.4 °F 53.6 °F 94% 29.44 in - NNE 4.6 mph - N/A   Clear
4:00 AM 57.2 °F 53.6 °F 88% 29.42 in - NNW 2.3 mph - N/A   Clear
5:00 AM 57.2 °F 53.6 °F 88% 29.39 in - NNE 3.5 mph - N/A   Clear
6:00 AM 55.4 °F 51.8 °F 88% 29.39 in - NNE 5.8 mph - N/A   Clear
7:00 AM 57.2 °F 53.6 °F 88% 29.36 in 6.2 mi North 8.1 mph - N/A   Scattered Clouds
8:00 AM 57.2 °F 53.6 °F 88% 29.36 in - North 8.1 mph - N/A   Clear
9:00 AM 60.8 °F 55.4 °F 82% 29.36 in - NNE 5.8 mph - N/A   Clear
11:00 AM 66.2 °F 55.4 °F 68% 29.30 in - North 9.2 mph - N/A   Clear
12:00 PM 66.2 °F 53.6 °F 64% 29.27 in - North 15.0 mph - N/A   Clear
1:00 PM 68.0 °F 53.6 °F 60% 29.24 in 6.2 mi North 13.8 mph - N/A   Partly Cloudy
2:00 PM 66.2 °F 51.8 °F 60% 29.21 in 6.2 mi North 15.0 mph - N/A   Partly Cloudy
3:00 PM 68.0 °F 50.0 °F 52% 29.18 in 6.2 mi North 8.1 mph - N/A   Partly Cloudy
4:00 PM 68.0 °F 50.0 °F 52% 29.15 in 6.2 mi North 5.8 mph - N/A   Partly Cloudy
5:00 PM 62.6 °F 55.4 °F 77% 29.15 in 6.2 mi SSE 8.1 mph - N/A   Partly Cloudy
6:00 PM 62.6 °F 57.2 °F 82% 29.15 in 6.2 mi SW 5.8 mph - N/A   Mostly Cloudy
7:00 PM 60.8 °F 55.4 °F 82% 29.15 in 6.2 mi SSE 6.9 mph - N/A   Mostly Cloudy
8:00 PM 60.8 °F 55.4 °F 82% 29.15 in 6.2 mi SSE 8.1 mph - N/A   Mostly Cloudy
8:10 PM 57.2 °F 53.6 °F 88% 29.21 in 6.2 mi North 13.8 mph - N/A   Mostly Cloudy
9:00 PM 55.4 °F 53.6 °F 94% 29.21 in 6.2 mi NNE 12.7 mph - N/A   Mostly Cloudy
9:25 PM 55.4 °F 53.6 °F 94% 29.18 in 6.2 mi North 11.5 mph - N/A Rain Rain Showers
10:00 PM 55.4 °F 53.6 °F 94% 29.18 in 6.2 mi NE 5.8 mph - N/A   Mostly Cloudy
11:00 PM 53.6 °F 53.6 °F 100% 29.18 in 6.2 mi NE 4.6 mph - N/A Rain Rain Showers